www.pogodaiklimat.ru

Погода и климат >> Архив погоды >> Франция >> Мыс Пертюзато


ПОГОДА на Мысе Пертюзато

  • Прогноз погоды на Мысе Пертюзато
  • Монитор погоды на Мысе Пертюзато

АРХИВ ПОГОДЫ на Мысе Пертюзато

Время (UTC), дата Ветер
(напр.,м/с)
 
Видим.   Явления Облачность Т
(С)
Тd
(С)
f
(%)
Тe
(С)
Тes
(С)
Комфортность P
(гПа)
Po
(гПа)
Тmin
(С)
Tmax
(С)
R
(мм)
R24
(мм)
S
(см)
16 9.06 СВ 4-6
{8}
н/о н/о +24.9 +16.3 59 +28 +28 жарко 1014.6 1001.3
17 9.06 СВ 5-6
{6}
н/о н/о +23.6 +16.9 66 +27 +27 жарко 1013.9 1000.6
18 9.06 СВ 5-7
{7}
н/о н/о +21.9 +17.3 75 +26 +26 душно 1013.7 1000.3 +19.7 +26.7
19 9.06 СВ 5-7
{7}
н/о н/о +20.8 +18.0 84 +25 +25 комфорт 1013.1 999.7
20 9.06 СВ 5-8
{8}
н/о н/о +20.5 +19.7 95 +25 +25 комфорт 1013.0 999.6
21 9.06 СВ 5-7
{8}
н/о н/о +20.2 +19.2 94 +24 +24 комфорт 1012.9 999.4
22 9.06 СВ 5-7
{8}
н/о н/о +20.2 +19.2 94 +24 +24 комфорт 1013.1 999.6
23 9.06 СВ 4-6
{7}
н/о н/о +20.3 +18.2 88 +24 +24 комфорт 1013.0 999.5
00 10.06 СВ 4-5
{6}
н/о н/о +20.4 +18.9 91 +24 +24 комфорт 1013.2 999.8
01 10.06 СВ 5-7
{8}
н/о н/о +20.4 +19.1 92 +24 +24 комфорт 1011.8 998.4
02 10.06 СВ 5-7
{8}
н/о н/о +20.4 +19.1 92 +24 +24 комфорт 1011.5 998.1
03 10.06 СВ 6-9
{9}
н/о н/о +20.3 +18.8 91 +24 +24 комфорт 1011.1 997.7
04 10.06 СВ 6-9
{9}
н/о н/о +20.5 +17.5 83 +24 +24 комфорт 1009.2 995.8 0.0
05 10.06 В 4-7
{9}
н/о н/о +21.6 +16.5 73 +25 +25 комфорт 1010.9 997.5 0.0
06 10.06 СВ 4
{13}
н/о н/о +22.5 +17.4 73 +27 +27 душно 1010.7 997.4 +20.0 +22.5 0.0
07 10.06 СВ 4-7
{7}
н/о н/о +24.3 +17.1 64 +28 +28 душно 1010.8 997.5 0.0
08 10.06 СВ 4-6
{7}
н/о н/о +25.5 +17.7 62 +30 +30 душно 1009.8 996.6 0.0
09 10.06 В 4-13
{15}
15 км 10/10 600 м
[Sc]
+27.4 +16.1 50 +31 +31 душно 1009.7 996.6 0.0
10 10.06 СВ 5-7
{8}
н/о н/о +27.8 +16.1 49 +31 +31 душно 1009.7 996.6
11 10.06 В 2-4
{7}
н/о н/о +28.1 +16.7 50 +32 +32 душно 1009.5 996.4
12 10.06 З 3
{11}
15 км 10/10 600 м
[Sc]
+22.6 +18.4 77 +28 +28 душно 1009.8 996.5
13 10.06 З 7-8
{8}
н/о н/о +21.0 +18.0 83 +25 +25 комфорт 1009.5 996.1
14 10.06 З 6-9
{9}
н/о н/о +21.4 +18.2 82 +26 +26 душно 1009.2 995.8
15 10.06 З 6-18
{19}
15 км 10/10 600 м
[Sc]
+22.2 +17.6 75 +27 +27 душно 1008.3 995.0
16 10.06 З 6-8
{8}
н/о н/о +21.6 +17.4 77 +26 +26 душно 1008.3 995.0
17 10.06 З 6-9
{9}
н/о н/о +20.3 +17.5 84 +23 +23 комфорт 1008.1 994.7
18 10.06 З 6-8
{9}
н/о н/о +19.6 +17.7 89 +22 +22 комфорт 1008.7 995.3 +19.6 +28.7
19 10.06 З 5-7
{8}
н/о н/о +19.0 +17.8 93 +20 +20 1008.6 995.1
20 10.06 З 6-8
{8}
н/о н/о +19.1 +17.9 93 +20 +20 1009.3 995.8
21 10.06 З 4-8
{9}
н/о н/о +18.8 +18.3 97 +20 +20 1009.8 996.3
22 10.06 З 5-8
{9}
н/о н/о +18.8 +18.3 97 +20 +20 1009.8 996.3
23 10.06 З 4-10
{10}
н/о н/о +18.6 +18.3 98 +20 +20 1009.0 995.5
00 11.06 З 4-9
{10}
н/о н/о +18.5 +18.2 98 +19 +19 1008.3 994.8
01 11.06 З 4-9
{9}
н/о н/о +18.4 +17.4 94 +19 +19 1008.2 994.7
02 11.06 З 3-6
{8}
н/о н/о +18.2 +17.7 97 +19 +19 1008.8 995.3
03 11.06 З 3-4
{7}
12 км 9/5 330 м
[Sc]
+18.1 +17.3 95 +19 +19 1009.5 996.0
04 11.06 З 1-3
{4}
н/о н/о +18.2 +17.2 94 +20 +20 1009.5 996.0
05 11.06 З 1-3
{3}
н/о н/о +18.2 +17.2 94 +20 +20 1009.7 996.2
06 11.06 З 2
{7}
12 км 9/5 330 м
[Sc]
+18.9 +17.2 90 +21 +22 комфорт 1009.8 996.3 +17.9 +19.6
07 11.06 З 3-4
{4}
н/о н/о +20.0 +17.8 87 +23 +23 комфорт 1009.7 996.3
08 11.06 З 3-4
{4}
н/о н/о +19.8 +17.6 87 +23 +23 комфорт 1009.7 996.3
09 11.06 З 3-4
{4}
н/о н/о +20.1 +17.3 84 +23 +23 комфорт 1009.6 996.2
10 11.06 З 2-4
{4}
н/о н/о +20.5 +17.1 81 +24 +24 комфорт 1010.1 996.7
11 11.06 З 2-3
{4}
н/о н/о +21.4 +17.4 78 +25 +25 комфорт 1009.9 996.5
12 11.06 З 2-3
{3}
12 км 4/0
[As trans]
+21.7 +17.3 76 +26 +42 душно 1009.3 996.0
13 11.06 З 1-2
{2}
н/о н/о +23.3 +18.2 73 +29 +29 душно 1008.8 995.5
14 11.06 ЮЗ 1-2
{2}
н/о н/о +21.7 +18.3 81 +26 +26 душно 1008.7 995.4
15 11.06 ЮВ 1-2
{2}
н/о н/о +22.7 +16.5 68 +27 +27 душно 1008.9 995.6
16 11.06 СВ 2-3
{4}
н/о н/о +23.4 +17.6 70 +29 +29 душно 1008.2 994.9
17 11.06 В 2-3
{3}
н/о н/о +21.6 +17.6 78 +26 +26 душно 1008.7 995.4
18 11.06 В 2
{5}
12 км 6/0
[As trans]
+20.9 +18.1 84 +26 +26 душно 1009.2 995.8 +18.9 +24.1
19 11.06 В 2-2
{3}
н/о н/о +20.4 +18.0 86 +25 +25 комфорт 1009.2 995.8
20 11.06 В 1-1
{2}
н/о н/о +20.3 +17.9 86 +25 +25 комфорт 1009.4 996.0
21 11.06 З 1-1
{1}
н/о н/о +19.9 +17.9 88 +24 +24 комфорт 1009.4 996.0
22 11.06 З 3-5
{5}
н/о н/о +19.3 +18.0 92 +22 +22 комфорт 1009.7 996.2
23 11.06 З 3-4
{5}
н/о н/о +19.1 +17.9 93 +21 +21 комфорт 1009.2 995.7
00 12.06 З 4-5
{5}
н/о н/о +18.8 +18.0 95 +20 +20 1008.9 995.4
01 12.06 З 4-6
{6}
н/о н/о +19.0 +17.8 93 +21 +21 комфорт 1009.2 995.7
02 12.06 З 4-6
{6}
н/о н/о +18.9 +18.2 96 +20 +20 1009.4 995.9
03 12.06 З 4-5
{6}
н/о н/о +18.5 +17.8 96 +19 +19 1009.5 996.0
04 12.06 З 4-6
{6}
н/о н/о +18.3 +17.8 97 +19 +19 1009.6 996.1
05 12.06 З 3-4
{6}
н/о н/о +18.3 +17.0 92 +19 +19 1010.1 996.6
06 12.06 З 3
{10}
н/о н/о +19.4 +17.2 87 +22 +22 комфорт 1010.7 997.2 +18.1 +20.9
07 12.06 З 4-7
{7}
н/о н/о +19.7 +17.3 86 +22 +22 комфорт 1011.0 997.5
08 12.06 З 6-8
{8}
н/о н/о +19.5 +16.5 83 +21 +21 комфорт 1011.1 997.6
09 12.06 З 6-8
{8}
18 км ясно +19.6 +15.9 79 +21 +28 комфорт 1011.2 997.7
10 12.06 З 7-9
{9}
н/о н/о +19.6 +15.9 79 +21 +21 комфорт 1011.1 997.6
11 12.06 З 7-10
{10}
н/о н/о +19.5 +15.6 78 +21 +21 комфорт 1012.0 998.5
12 12.06 З 7-10
{10}
18 км ясно +19.2 +14.9 76 +20 +26 1012.0 998.5
13 12.06 З 6-9
{9}
н/о н/о +19.5 +14.3 72 +21 +21 комфорт 1012.8 999.3
14 12.06 З 6-8
{8}
н/о н/о +19.7 +13.4 67 +21 +21 комфорт 1012.9 999.4
15 12.06 З 6-8
{9}
н/о н/о +19.4 +13.8 70 +20 +20 1012.8 999.3
16 12.06 З 6-8
{9}
н/о н/о +18.9 +13.5 71 +19 +19 1012.8 999.3
17 12.06 З 5-7
{9}
н/о н/о +18.7 +13.3 71 +19 +19 1012.9 999.3
18 12.06 З 5
{14}
15 км 3/0
[Ci sp]
+18.3 +13.4 73 +18 +19 1013.5 999.9 +18.1 +19.9
19 12.06 З 5-8
{8}
н/о н/о +17.7 +13.4 76 +17 +17 1013.6 1000.0
20 12.06 З 4-7
{7}
н/о н/о +17.4 +13.3 77 +17 +17 1014.3 1000.7
21 12.06 З 4-6
{6}
н/о н/о +17.2 +13.5 79 +17 +17 1014.6 1001.0
22 12.06 З 4-7
{7}
н/о н/о +17.4 +13.7 79 +17 +17 1014.6 1001.0
23 12.06 З 4-6
{7}
н/о н/о +17.3 +14.4 83 +17 +17 1014.5 1000.9
00 13.06 З 5-6
{12}
н/о н/о +17.4 +14.7 84 +17 +17 1014.4 1000.8
01 13.06 З 1-4
{5}
н/о н/о +17.4 +14.9 85 +18 +18 1014.5 1000.9
02 13.06 З 1-2
{4}
н/о н/о +16.5 +14.5 88 +17 +17 1014.7 1001.0
03 13.06 ЮЗ 1-2
{2}
н/о н/о +16.4 +14.2 87 +17 +17 1014.8 1001.1
04 13.06 ЮЗ 1-1
{2}
н/о н/о +16.4 +13.3 82 +18 +18 1015.0 1001.3
05 13.06 Ю 1-1
{1}
н/о н/о +17.8 +14.9 83 +19 +19 1015.7 1002.1
06 13.06 Ю 1
{3}
22 км 4/4 800 м
[Cu hum]
+18.4 +15.3 82 +20 +22 1016.1 1002.5 +16.2 +18.5
07 13.06 ЮЗ 1-1
{2}
н/о н/о +19.1 +15.6 80 +22 +22 комфорт 1016.5 1002.9
08 13.06 В 2-4
{4}
н/о н/о +22.2 +16.9 72 +27 +27 душно 1016.1 1002.7
09 13.06 В 3-5
{5}
20 км 1/1 800 м
[Cu hum]
+23.7 +16.7 65 +27 +38 жарко 1016.3 1002.9
10 13.06 В 3-5
{5}
н/о н/о +24.3 +16.6 62 +28 +28 душно 1016.2 1002.9
11 13.06 В 4-5
{6}
н/о н/о +24.6 +16.6 61 +28 +28 душно 1016.1 1002.8
12 13.06 В 5-6
{6}
н/о н/о +24.1 +15.6 59 +27 +27 жарко 1015.7 1002.4
13 13.06 В 4-6
{7}
н/о н/о +24.6 +14.7 54 +27 +27 жарко 1016.2 1002.9
14 13.06 В 5-6
{7}
н/о н/о +24.4 +15.3 57 +27 +27 жарко 1015.9 1002.6
15 13.06 В 5-7
{7}
20 км ясно +24.0 +14.1 54 +26 +32 жарко 1015.6 1002.3
16 13.06 СВ 5-7
{7}
н/о н/о +23.6 +15.1 59 +26 +26 жарко 1015.1 1001.7
17 13.06 СВ 5-7
{7}
н/о н/о +22.3 +16.6 70 +27 +27 душно 1015.0 1001.6
18 13.06 СВ 5-15
{15}
20 км ясно +21.2 +16.8 76 +25 +25 комфорт 1015.2 1001.7 +18.2 +25.7
19 13.06 СВ 5-7
{8}
н/о н/о +20.2 +16.4 79 +23 +23 комфорт 1015.2 1001.7
20 13.06 В 5-8
{8}
н/о н/о +20.1 +15.7 76 +23 +23 комфорт 1015.6 1002.1
21 13.06 В 5-7
{8}
н/о н/о +20.2 +15.0 72 +23 +23 комфорт 1015.1 1001.6
22 13.06 В 5-7
{8}
н/о н/о +20.4 +14.5 69 +23 +23 комфорт 1015.0 1001.5
23 13.06 СВ 5-7
{7}
н/о н/о +20.2 +14.8 71 +22 +22 комфорт 1014.5 1001.0
00 14.06 СВ 5-7
{8}
н/о н/о +19.9 +16.9 83 +22 +22 комфорт 1014.1 1000.6
01 14.06 СВ 4-6
{8}
н/о н/о +20.0 +11.5 58 +22 +22 комфорт 1014.3 1000.8
02 14.06 В 6-8
{8}
н/о н/о +20.3 +12.3 60 +22 +22 комфорт 1013.2 999.7
03 14.06 СВ 5-7
{8}
н/о н/о +20.0 +13.5 66 +22 +22 комфорт 1013.1 999.6
04 14.06 СВ 5-9
{9}
н/о н/о +20.2 +13.9 67 +22 +22 комфорт 1013.0 999.5
05 14.06 СВ 6-8
{9}
н/о н/о +20.8 +14.7 68 +24 +24 комфорт 1013.0 999.5
06 14.06 СВ 6
{16}
16 км 3/3 800 м
[Cu hum]
+22.8 +14.1 58 +26 +27 жарко 1013.4 1000.0 +19.8 +22.8
07 14.06 СВ 6-9
{9}
н/о н/о +24.0 +14.4 55 +27 +27 жарко 1013.0 999.7
08 14.06 СВ 6-9
{11}
н/о н/о +25.3 +11.8 43 +27 +27 жарко 1012.9 999.6
09 14.06 СВ 7-10
{10}
16 км 3/3 800 м
[Cu hum]
+26.3 +13.8 46 +28 +31 жарко 1012.1 998.9
10 14.06 СВ 6-10
{11}
н/о н/о +25.6 +15.0 52 +28 +28 жарко 1012.5 999.3
11 14.06 СВ 7-10
{10}
н/о н/о +23.7 +17.4 68 +28 +28 душно 1012.8 999.5
12 14.06 СВ 6-10
{11}
15 км 10/10 400 м
[St]
+22.5 +18.3 77 +28 +28 душно 1013.3 999.9
13 14.06 СВ 6-9
{10}
н/о н/о +22.7 +19.3 81 +29 +29 очень
душно
1012.1 998.8
14 14.06 СВ 7-9
{10}
н/о н/о +22.6 +19.9 85 +29 +29 очень
душно
1011.0 997.7
15 14.06 СВ 4-6
{10}
15 км 10/10 400 м
[St]
+24.6 +20.1 76 +30 +30 очень
душно
1012.5 999.3
16 14.06 СВ 3-4
{6}
н/о н/о +23.7 +19.8 79 +29 +29 душно 1013.2 999.9
17 14.06 В 2-2
{4}
н/о н/о +23.5 +19.8 80 +29 +29 душно 1013.6 1000.3
18 14.06 ЮЗ 1
{5}
15 км 10/10 400 м
[St]
+22.3 +19.5 84 +28 +28 душно 1013.5 1000.1 +21.9 +26.8
19 14.06 З 5-9
{9}
н/о н/о +20.2 +18.7 91 +24 +24 комфорт 1013.3 999.8
20 14.06 З 6-8
{10}
н/о н/о +19.5 +18.5 94 +22 +22 комфорт 1014.5 1001.0
21 14.06 З 7-9
{9}
н/о н/о +19.6 +18.1 91 +22 +22 комфорт 1014.4 1000.9
22 14.06 З 8-10
{11}
н/о н/о +19.4 +17.7 90 +21 +21 комфорт 1014.8 1001.3
23 14.06 З 4-10
{12}
н/о н/о +19.4 +17.7 90 +22 +22 комфорт 1014.4 1000.9
00 15.06 З 4-9
{11}
н/о н/о +18.9 +17.9 94 +20 +20 1013.9 1000.4
01 15.06 З 4-11
{11}
н/о н/о +18.9 +17.9 94 +20 +20 1013.5 1000.0
02 15.06 З 3-9
{12}
н/о н/о +18.7 +18.0 96 +20 +20 1014.2 1000.7
03 15.06 З 4-9
{9}
н/о н/о +18.7 +18.0 96 +20 +20 1014.6 1001.0
04 15.06 З 3-7
{8}
н/о н/о +18.6 +18.3 98 +20 +20 1015.1 1001.5
05 15.06 З 3-7
{8}
н/о н/о +18.5 +18.2 98 +20 +20 1015.3 1001.7
06 15.06 З 3
{15}
н/о н/о +18.6 +18.1 97 +20 +20 1015.9 1002.3 +18.5 +22.2
07 15.06 З 4-5
{8}
н/о н/о +18.8 +18.0 95 +20 +20 1016.7 1003.1
08 15.06 З 2-4
{5}
н/о н/о +19.2 +18.2 94 +22 +22 комфорт 1017.1 1003.5
09 15.06 З 2-4
{4}
5000 м дымка 10/10 480 м
[St]
+19.5 +18.5 94 +22 +22 комфорт 1017.2 1003.7
10 15.06 З 2-4
{4}
н/о н/о +20.0 +18.5 91 +24 +24 комфорт 1017.1 1003.6
11 15.06 З 2-4
{4}
н/о н/о +20.7 +18.8 89 +25 +25 комфорт 1016.9 1003.4
12 15.06 З 3
{10}
5000 м дымка 5/4 480 м
[St Ac und Ci ing]
+20.7 +18.5 87 +25 +35 комфорт 1016.8 1003.3
13 15.06 З 4-5
{6}
н/о н/о +21.6 +18.4 82 +26 +26 душно 1016.7 1003.3
14 15.06 З 4-5
{6}
н/о н/о +21.7 +18.5 82 +26 +26 душно 1016.3 1002.9
15 15.06 З 3
{9}
15 км 5/4 480 м
[St Ac und Ci ing]
+21.3 +18.5 84 +26 +30 душно 1016.3 1002.8
16 15.06 З 2-4
{5}
н/о н/о +21.0 +18.6 86 +26 +26 душно 1016.1 1002.6
17 15.06 З 3-3
{4}
н/о н/о +20.7 +18.6 88 +25 +25 комфорт 1015.9 1002.4
18 15.06 З 2
{6}
15 км 5/4 480 м
[St Ac und Ci ing]
+20.7 +17.5 82 +25 +25 комфорт 1015.9 1002.4 +18.5 +22.2
19 15.06 З 3-5
{5}
н/о н/о +19.2 +17.0 87 +21 +21 комфорт 1016.1 1002.5
20 15.06 З 3-4
{5}
н/о н/о +19.1 +16.7 86 +21 +21 комфорт 1016.6 1003.0
21 15.06 ЮЗ 2-4
{5}
н/о н/о +19.0 +18.2 95 +21 +21 комфорт 1016.8 1003.2
22 15.06 З 2-6
{6}
н/о н/о +19.0 +18.8 99 +21 +21 комфорт 1016.5 1002.9
23 15.06 З 5-8
{8}
н/о н/о +18.7 +18.4 98 +20 +20 1016.6 1003.0
00 16.06 З 4-7
{8}
10 км ясно +18.4 +17.2 93 +19 +19 1016.3 1002.7
01 16.06 З 4-7
{8}
н/о н/о +18.5 +17.2 92 +19 +19 1016.0 1002.4
02 16.06 З 3-6
{7}
н/о н/о +18.4 +17.6 95 +19 +19 1015.8 1002.2
03 16.06 З 3-6
{7}
н/о н/о +18.2 +17.6 96 +19 +19 1015.6 1002.0
04 16.06 З 5-7
{7}
н/о н/о +18.2 +16.5 90 +18 +18 1015.6 1002.0
05 16.06 З 5-7
{8}
н/о н/о +19.0 +16.0 83 +20 +20 1015.7 1002.1
06 16.06 З 4
{13}
12 км 4/4 480 м
[Cu med, cong]
+19.2 +17.2 88 +21 +22 комфорт 1016.3 1002.7 +17.9 +20.7
07 16.06 З 5-6
{7}
н/о н/о +19.7 +17.5 87 +22 +22 комфорт 1016.5 1003.0
08 16.06 З 6-7
{7}
н/о н/о +19.9 +17.3 85 +22 +22 комфорт 1016.5 1003.0
09 16.06 З 4-7
{8}
12 км 4/4 480 м
[Cu med, cong]
+19.6 +17.0 85 +22 +28 комфорт 1016.6 1003.1
10 16.06 З 3-7
{8}
н/о н/о +19.6 +17.0 85 +22 +22 комфорт 1016.4 1002.9
11 16.06 З 3-7
{7}
н/о н/о +20.0 +17.4 85 +23 +23 комфорт 1016.4 1002.9
12 16.06 З 3-6
{6}
н/о н/о +20.3 +17.3 83 +24 +24 комфорт 1016.2 1002.7
13 16.06 З 4-6
{6}
н/о н/о +20.5 +17.7 84 +24 +24 комфорт 1016.1 1002.6
14 16.06 З 4-6
{6}
н/о н/о +20.9 +17.5 81 +25 +25 комфорт 1016.0 1002.5

 

Местоположение метеостанции Мыс Пертюзато (Франция): широта 41.37 долгота 9.17 высота над уровнем моря 116 м.

В архиве по умолчанию представлена погода на Мысе Пертюзато за последнюю неделю. Архивные данные за месяц целиком и за предыдущие месяцы, начиная с января 2011 года, Вы можете получить, выбрав интересующий диапазон дат из раскрывающегося списка и нажав кнопку "Ввод!".


*Определитесь, кто Вы:
робот инопланетянин человек

Внимание! Время в таблицах - всемирное. Для получения местного времени необходимо прибавить поправку, которая равна 1 ч.

Смотрите также архив погоды в соседних городах и на ближайших метеорологических станциях:

Погода в Фигари (Франция) (16 км)
Погода в Ольвии (Италия) (60 км)
Погода в Соленцаре (Франция) (64 км)
Погода в Аяччо (Франция) (68 км)
Погода в Ла Парате (Франция) (76 км)
Погода в Алистро (Франция) (104 км)
Погода в Альгеро (Италия) (111 км)
Погода на Капо Кацция (Италия) (122 км)
Погода в Кальви (Франция) (133 км)
Погода в Бастии (Франция) (134 км)

Пояснения к столбцам:

Ветер - указаны скорость ветра в м/с - средняя за 10 мин, порывы в срок и между сроками (в фигурных скобках) и направление, откуда дует ветер: С - северный, СВ - северо-восточный, В - восточный, ЮВ - юго-восточный, Ю - южный, ЮЗ - юго-западный, З - западный, СЗ - северо-западный.
Видимость - горизонтальная дальность видимости в метрах или километрах. При видимости от 1 до 10 км при отсутствии осадков обычно наблюдается дымка, при ухудшении видимости до 1 км и менее - туман. В сухую погоду видимость может ухудшаться дымом, пылью или мглою.
Явления - указаны атмосферные явления, наблюдавшиеся в срок или в последний час перед сроком; фигурными скобками обозначены явления, наблюдавшиеся между сроками (за 1-3 часа до срока); квадратными скобками обозначены град или гололедные отложения с указанием их диаметра в мм.
Облачность - указаны через наклонную черту общая и нижняя облачность в баллах и высота нижней границы облаков в метрах; квадратными скобками обозначены формы облаков: Ci - перистые, Cs - перисто-слоистые, Cc - перисто-кучевые, Ac - высококучевые, As - высокослоистые, Sc - слоисто-кучевые, Ns - слоисто-дождевые, Cu - кучевые, Cb - кучево-дождевые. Подробнее классификацию облаков см. в Атласе облаков (PDF).
T - Температура воздуха - температура, измеренная на высоте 2 м над землей.
Td - Температура точки росы - температура, при понижении до которой содержащийся в воздухе водяной пар достигнет насыщения.
f - Относительная влажность воздуха - влажноcть воздуха, измеренная на высоте 2 м над землей.
Te - Эффективная температура - температура, которую ощущает одетый по сезону человек в тени. Характеристика душности погоды. При расчете учитывается влияние влажности воздуха и скорости ветра на теплоощущения человека.
Tes - Эффективная температура на солнце - температура, которую ощущает человек, с поправкой на солнечный нагрев. Характеристика знойности погоды. Зависит от высоты солнца над горизонтом, облачности и скорости ветра. Ночью, в пасмурную погоду, а также при ветре 12 м/с и более поправка равна нулю.
P - Атмосферное давление - приведенное к уровню моря атмосферное давление.
Po - Атмосферное давление - измеренное на уровне метеостанции атмосферное давление.
Tmin - Минимальная температура - минимум температуры воздуха на высоте 2 м над землей.
Tmax - Максимальная температура - максимум температуры воздуха на высоте 2 м над землей.
R - Количество осадков - Количество выпавших осадков за период времени, мм. При наведении курсора мыши на число - период времени, за который выпало указанное количество осадков.
R24 - Количество осадков - Количество выпавших осадков за 24 часа, мм.
S - Снежный покров - Высота снежного покрова, см. При наведении курсора мыши на число - состояние снежного покрова и степень покрытия местности в баллах.